TimeCDT,TemperatureF,Dew PointF,Humidity,Sea Level PressureIn,VisibilityMPH,Wind Direction,Wind SpeedMPH,Gust SpeedMPH,PrecipitationIn,Events,Conditions,WindDirDegrees,DateUTC
12:12 AM,69.8,62.6,78,30.08,10.0,South,6.9,-,N/A,,Clear,170,2013-07-14 05:12:00
12:33 AM,69.8,62.6,78,30.08,10.0,SSE,6.9,-,N/A,,Clear,160,2013-07-14 05:33:00
12:53 AM,69.8,62.6,78,30.08,10.0,South,5.8,-,N/A,,Clear,170,2013-07-14 05:53:00
1:12 AM,69.8,62.6,78,30.08,10.0,SSE,5.8,-,N/A,,Clear,160,2013-07-14 06:12:00
1:33 AM,69.8,62.6,78,30.08,10.0,South,4.6,-,N/A,,Clear,180,2013-07-14 06:33:00
1:53 AM,69.8,62.6,78,30.08,10.0,SSE,5.8,-,N/A,,Clear,160,2013-07-14 06:53:00
2:12 AM,68.0,62.6,83,30.07,10.0,South,5.8,-,N/A,,Clear,170,2013-07-14 07:12:00
2:33 AM,68.0,62.6,83,30.07,10.0,SSE,4.6,-,N/A,,Clear,160,2013-07-14 07:33:00
2:52 AM,68.0,60.8,78,30.08,10.0,South,5.8,-,N/A,,Clear,170,2013-07-14 07:52:00
3:13 AM,66.2,60.8,83,30.08,10.0,SSE,4.6,-,N/A,,Clear,160,2013-07-14 08:13:00
3:33 AM,66.2,60.8,83,30.08,10.0,Calm,Calm,-,N/A,,Clear,0,2013-07-14 08:33:00
3:53 AM,66.2,60.8,83,30.08,10.0,Calm,Calm,-,N/A,,Scattered Clouds,0,2013-07-14 08:53:00
4:13 AM,66.2,60.8,83,30.09,10.0,Calm,Calm,-,N/A,,Mostly Cloudy,0,2013-07-14 09:13:00
4:33 AM,66.2,60.8,83,30.09,10.0,Calm,Calm,-,N/A,,Overcast,0,2013-07-14 09:33:00
4:53 AM,66.2,60.8,83,30.09,10.0,Calm,Calm,-,N/A,,Overcast,0,2013-07-14 09:53:00
5:13 AM,66.2,60.8,83,30.07,10.0,Calm,Calm,-,N/A,,Mostly Cloudy,0,2013-07-14 10:13:00
5:33 AM,64.4,60.8,88,30.08,10.0,SE,4.6,-,N/A,,Clear,140,2013-07-14 10:33:00
5:53 AM,64.4,60.8,88,30.08,10.0,SE,5.8,-,N/A,,Scattered Clouds,140,2013-07-14 10:53:00
6:13 AM,64.4,60.8,88,30.07,10.0,SE,5.8,-,N/A,,Mostly Cloudy,140,2013-07-14 11:13:00
6:33 AM,64.4,60.8,88,30.09,10.0,SSE,3.5,-,N/A,Thunderstorm,Scattered Clouds,150,2013-07-14 11:33:00
6:53 AM,66.2,60.8,83,30.10,10.0,SSE,6.9,-,N/A,Thunderstorm,Clear,150,2013-07-14 11:53:00
7:13 AM,66.2,60.8,83,30.11,10.0,SSE,8.1,-,N/A,,Mostly Cloudy,160,2013-07-14 12:13:00
7:33 AM,66.2,60.8,83,30.10,10.0,South,5.8,-,N/A,Thunderstorm,Mostly Cloudy,170,2013-07-14 12:33:00
7:53 AM,66.2,60.8,83,30.10,10.0,SSE,8.1,-,N/A,Thunderstorm,Overcast,150,2013-07-14 12:53:00
8:13 AM,66.2,60.8,83,30.12,10.0,South,5.8,-,N/A,Thunderstorm,Thunderstorm,170,2013-07-14 13:13:00
8:33 AM,64.4,60.8,88,30.13,10.0,SSE,9.2,-,N/A,Thunderstorm,Thunderstorm,160,2013-07-14 13:33:00
8:53 AM,64.4,60.8,88,30.14,10.0,South,5.8,-,N/A,Rain-Thunderstorm,Rain,190,2013-07-14 13:53:00
9:13 AM,64.4,60.8,88,30.15,7.0,South,5.8,-,0.04,Rain-Thunderstorm,Light Thunderstorms and Rain,190,2013-07-14 14:13:00
9:33 AM,62.6,62.6,100,30.16,1.2,Calm,Calm,-,0.30,Rain-Thunderstorm,Heavy Thunderstorms and Rain,0,2013-07-14 14:33:00
9:53 AM,62.6,62.6,100,30.16,1.0,SSE,4.6,-,0.20,Rain-Thunderstorm,Heavy Thunderstorms and Rain,150,2013-07-14 14:53:00
10:13 AM,62.6,62.6,100,30.16,1.8,Calm,Calm,-,0.43,Rain-Thunderstorm,Heavy Thunderstorms and Rain,0,2013-07-14 15:13:00
10:33 AM,62.6,62.6,100,30.17,2.5,Calm,Calm,-,0.55,Rain,Rain,0,2013-07-14 15:33:00
10:53 AM,62.6,62.6,100,30.17,4.0,Calm,Calm,-,0.03,Rain,Rain,0,2013-07-14 15:53:00
11:13 AM,62.6,62.6,100,30.17,1.0,Calm,Calm,-,0.18,Rain,Heavy Rain,0,2013-07-14 16:13:00
11:33 AM,62.6,62.6,100,30.17,2.5,Calm,Calm,-,0.26,Rain,Rain,0,2013-07-14 16:33:00
11:53 AM,62.6,62.6,100,30.17,1.2,Calm,Calm,-,0.05,Rain,Heavy Rain,0,2013-07-14 16:53:00
12:12 PM,62.6,62.6,100,30.17,2.0,ESE,4.6,-,0.25,Rain,Heavy Rain,120,2013-07-14 17:12:00
12:33 PM,64.4,64.4,100,30.16,5.0,SE,5.8,-,0.35,Rain,Rain,130,2013-07-14 17:33:00
12:53 PM,64.4,64.4,100,30.17,5.0,SSE,8.1,-,0.01,Rain,Light Rain,160,2013-07-14 17:53:00
1:12 PM,64.4,64.4,100,30.17,4.0,South,4.6,-,0.03,Rain,Rain,180,2013-07-14 18:12:00
1:33 PM,64.4,64.4,100,30.18,5.0,South,3.5,-,0.07,Rain,Rain,180,2013-07-14 18:33:00
1:53 PM,64.4,64.4,100,30.19,5.0,South,8.1,-,0.02,Rain,Rain,190,2013-07-14 18:53:00
2:13 PM,64.4,64.4,100,30.20,4.0,SSW,3.5,-,0.11,Rain,Rain,200,2013-07-14 19:13:00
2:33 PM,64.4,64.4,100,30.19,3.0,Calm,Calm,-,0.18,Rain,Rain,0,2013-07-14 19:33:00
2:53 PM,64.4,64.4,100,30.19,4.0,Calm,Calm,-,0.01,Rain,Rain,0,2013-07-14 19:53:00
3:13 PM,64.4,64.4,100,30.19,7.0,South,3.5,-,0.03,Rain,Light Rain,190,2013-07-14 20:13:00
3:33 PM,66.2,66.2,100,30.20,7.0,SSW,4.6,-,0.05,Rain,Light Rain,200,2013-07-14 20:33:00
3:52 PM,66.2,66.2,100,30.20,7.0,Calm,Calm,-,N/A,Rain,Rain,0,2013-07-14 20:52:00
4:13 PM,64.4,64.4,100,30.20,5.0,South,4.6,-,0.04,Rain,Rain,190,2013-07-14 21:13:00
4:33 PM,64.4,64.4,100,30.20,5.0,Calm,Calm,-,0.09,Rain,Rain,0,2013-07-14 21:33:00
4:52 PM,64.4,64.4,100,30.21,7.0,Calm,Calm,-,N/A,Rain,Light Rain,0,2013-07-14 21:52:00
5:13 PM,64.4,64.4,100,30.21,3.0,Calm,Calm,-,0.03,Rain,Rain,0,2013-07-14 22:13:00
5:32 PM,64.4,64.4,100,30.20,1.8,Calm,Calm,-,0.12,Rain,Rain,0,2013-07-14 22:32:00
5:53 PM,66.2,66.2,100,30.20,2.5,Calm,Calm,-,0.02,Rain,Rain,0,2013-07-14 22:53:00
6:13 PM,66.2,66.2,100,30.20,4.0,Calm,Calm,-,0.04,Rain,Rain,0,2013-07-14 23:13:00
6:33 PM,66.2,66.2,100,30.20,4.0,Calm,Calm,-,0.05,Rain,Light Rain,0,2013-07-14 23:33:00
6:53 PM,66.2,66.2,100,30.20,4.0,South,3.5,-,N/A,Rain,Light Rain,170,2013-07-14 23:53:00
7:12 PM,66.2,66.2,100,30.21,7.0,Calm,Calm,-,0.01,Rain,Rain,0,2013-07-15 00:12:00
7:33 PM,66.2,66.2,100,30.21,7.0,Calm,Calm,-,0.01,,Light Drizzle,0,2013-07-15 00:33:00
7:52 PM,66.2,66.2,100,30.21,5.0,Calm,Calm,-,N/A,,Light Drizzle,0,2013-07-15 00:52:00
8:13 PM,66.2,66.2,100,30.21,4.0,Calm,Calm,-,N/A,,Drizzle,0,2013-07-15 01:13:00
8:32 PM,66.2,66.2,100,30.21,3.0,Calm,Calm,-,0.03,Rain,Heavy Rain,0,2013-07-15 01:32:00
8:53 PM,66.2,66.2,100,30.21,4.0,Calm,Calm,-,N/A,,Overcast,0,2013-07-15 01:53:00
9:13 PM,66.2,66.2,100,30.22,2.5,Calm,Calm,-,N/A,,Drizzle,0,2013-07-15 02:13:00
9:32 PM,66.2,66.2,100,30.23,4.0,Calm,Calm,-,N/A,,Overcast,0,2013-07-15 02:32:00
9:53 PM,66.2,66.2,100,30.24,5.0,Calm,Calm,-,N/A,,Overcast,0,2013-07-15 02:53:00
10:13 PM,66.2,66.2,100,30.24,7.0,Calm,Calm,-,N/A,,Overcast,0,2013-07-15 03:13:00
10:32 PM,66.2,66.2,100,30.24,5.0,Calm,Calm,-,N/A,,Overcast,0,2013-07-15 03:32:00
10:53 PM,66.2,66.2,100,30.24,2.0,Calm,Calm,-,0.02,Rain,Heavy Rain,0,2013-07-15 03:53:00
11:13 PM,66.2,66.2,100,30.25,2.0,Calm,Calm,-,0.05,,Heavy Drizzle,0,2013-07-15 04:13:00
11:32 PM,66.2,66.2,100,30.25,2.5,SSE,3.5,-,0.07,,Heavy Drizzle,150,2013-07-15 04:32:00
11:53 PM,66.2,66.2,100,30.25,2.5,SE,3.5,-,0.01,,Heavy Drizzle,140,2013-07-15 04:53:00